JST738 YMLT-YMML

Flight info

Callsign JST738
Flight time N/A
Altitude 32000
Route FLIKI H215 RAZZI
Aircraft A320/M-SDE3FGHIRWY/LB1

Departure

Time 2026-04-13 12:15
Airport Launceston Airport (YMLT)

Arrival

Time N/A
Airport Melbourne Airport (YMML)
Time Latitude Longitude Altitude Speed Heading
2026-04-13 11:44 -41.54203 147.20562 577 ft 0 kts 292°
2026-04-13 12:08 -41.54210 147.20584 577 ft 4 kts 292°
2026-04-13 12:09 -41.54220 147.20617 577 ft 3 kts 292°
2026-04-13 12:09 -41.54223 147.20627 577 ft 0 kts 292°
2026-04-13 12:10 -41.54223 147.20626 577 ft 0 kts 292°
2026-04-13 12:11 -41.54222 147.20604 577 ft 3 kts 252°
2026-04-13 12:11 -41.54235 147.20589 577 ft 5 kts 196°
2026-04-13 12:11 -41.54268 147.20645 577 ft 15 kts 114°
2026-04-13 12:11 -41.54339 147.20771 577 ft 19 kts 142°
2026-04-13 12:12 -41.54456 147.20859 577 ft 20 kts 148°
2026-04-13 12:12 -41.54581 147.20958 577 ft 22 kts 149°
2026-04-13 12:12 -41.54708 147.21084 577 ft 24 kts 152°
2026-04-13 12:12 -41.54853 147.21197 577 ft 24 kts 147°
2026-04-13 12:13 -41.54993 147.21313 577 ft 24 kts 149°
2026-04-13 12:13 -41.55135 147.21424 577 ft 24 kts 140°
2026-04-13 12:13 -41.55223 147.21555 577 ft 18 kts 96°
2026-04-13 12:13 -41.55225 147.21575 577 ft 0 kts 94°
2026-04-13 12:14 -41.55185 147.21656 577 ft 14 kts 359°
2026-04-13 12:14 -41.54982 147.21494 577 ft 66 kts 323°
2026-04-13 12:15 -41.54434 147.21007 577 ft 121 kts 328°
2026-04-13 12:15 -41.53638 147.20394 807 ft 133 kts 328°
2026-04-13 12:15 -41.52707 147.19884 1191 ft 154 kts 350°
2026-04-13 12:15 -41.51620 147.19629 1767 ft 163 kts 329°
2026-04-13 12:16 -41.50822 147.18561 2418 ft 173 kts 294°
2026-04-13 12:16 -41.50578 147.16824 2696 ft 216 kts 264°
2026-04-13 12:16 -41.51150 147.14826 3412 ft 238 kts 235°
2026-04-13 12:16 -41.52403 147.13410 4770 ft 242 kts 210°
2026-04-13 12:17 -41.54027 147.12847 6000 ft 250 kts 185°
2026-04-13 12:17 -41.55753 147.13300 7235 ft 260 kts 161°
2026-04-13 12:17 -41.57251 147.14747 8386 ft 275 kts 137°
2026-04-13 12:17 -41.58231 147.16991 9554 ft 289 kts 114°
2026-04-13 12:18 -41.58900 147.19572 10499 ft 302 kts 116°
2026-04-13 12:18 -41.59307 147.22441 11334 ft 325 kts 95°
2026-04-13 12:18 -41.58912 147.25471 12327 ft 341 kts 75°
2026-04-13 12:18 -41.57740 147.28289 13250 ft 353 kts 54°
2026-04-13 12:19 -41.55921 147.30525 14144 ft 361 kts 34°
2026-04-13 12:19 -41.53635 147.31934 14986 ft 363 kts 13°
2026-04-13 12:19 -41.51184 147.32337 15826 ft 359 kts 353°
2026-04-13 12:19 -41.48759 147.31717 16620 ft 351 kts 333°
2026-04-13 12:20 -41.46673 147.30146 17430 ft 340 kts 314°
2026-04-13 12:20 -41.44895 147.28075 18221 ft 340 kts 308°
2026-04-13 12:20 -41.43167 147.25897 18975 ft 343 kts 307°
2026-04-13 12:20 -41.41458 147.23711 19744 ft 346 kts 307°
2026-04-13 12:21 -41.39717 147.21476 20439 ft 350 kts 307°
2026-04-13 12:21 -41.37840 147.19340 21113 ft 361 kts 316°
2026-04-13 12:21 -41.35646 147.17597 21788 ft 372 kts 324°
2026-04-13 12:21 -41.33284 147.16096 22365 ft 379 kts 327°
2026-04-13 12:22 -41.30870 147.14646 22956 ft 382 kts 328°
2026-04-13 12:22 -41.28425 147.13197 23558 ft 384 kts 328°
2026-04-13 12:22 -41.25987 147.11760 24080 ft 388 kts 328°
2026-04-13 12:22 -41.23510 147.10305 24611 ft 391 kts 328°
2026-04-13 12:23 -41.21008 147.08839 25119 ft 394 kts 328°
2026-04-13 12:23 -41.18481 147.07361 25600 ft 397 kts 328°
2026-04-13 12:23 -41.15940 147.05877 26090 ft 400 kts 328°
2026-04-13 12:23 -41.13383 147.04385 26564 ft 402 kts 328°
2026-04-13 12:24 -41.10834 147.02899 27009 ft 405 kts 328°
2026-04-13 12:24 -41.08241 147.01390 27485 ft 407 kts 328°
2026-04-13 12:24 -41.05641 146.99878 27919 ft 410 kts 328°
2026-04-13 12:24 -41.03016 146.98350 28348 ft 412 kts 328°
2026-04-13 12:25 -41.00381 146.96818 28782 ft 415 kts 328°
2026-04-13 12:25 -40.97729 146.95277 29195 ft 418 kts 328°
2026-04-13 12:25 -40.95057 146.93726 29595 ft 420 kts 328°
2026-04-13 12:25 -40.92380 146.92172 30005 ft 422 kts 328°
2026-04-13 12:26 -40.89671 146.90600 30394 ft 425 kts 328°
2026-04-13 12:26 -40.86982 146.89042 30748 ft 428 kts 328°
2026-04-13 12:26 -40.84246 146.87459 31123 ft 430 kts 328°
2026-04-13 12:26 -40.81506 146.85874 31511 ft 431 kts 328°
2026-04-13 12:27 -40.78741 146.84275 31814 ft 435 kts 328°
2026-04-13 12:27 -40.73174 146.81057 32085 ft 440 kts 329°
2026-04-13 12:27 -40.70318 146.79406 32105 ft 454 kts 329°
2026-04-13 12:28 -40.67384 146.77714 32112 ft 467 kts 329°
2026-04-13 12:28 -40.64371 146.75989 32115 ft 475 kts 329°
2026-04-13 12:28 -40.58290 146.72509 32119 ft 476 kts 329°